Weather in Verkhnechusovskie Gorodki

Russia / Perm Krai     58°10′10″N   57°06′21″E
temp.,
°C
wind,
m/s
gust,
m/s
humid.,
%
clouds,
%
prec.,
mm/h
press.,
hPa
HPBL,
m
15 may, sat
sat1523:00+18ssw210685 0.2 1020178
02:00+16ssw24718 0.0 101971
05:00+15s26740 0.0 1019106
08:00+20sw395666 0.0 1018405
11:00+25wsw584296 0.0 10181208
14:00+28wnw51331100 0.0 10182905
17:00+26wsw51037100 0.0 10181210
20:00+21ssw115893 0.1 101713
16 may, sun
sun1623:00+17ssw287690 0.5 1017149
02:00+17sw3147097 0.0 1017365
05:00+15sw2879100 0.0 1017151
08:00+20wsw39588 0.0 1018336
11:00+26wsw48355 0.0 1018981
14:00+29wsw610235 0.0 10172653
17:00+30wsw59245 0.0 10163236
20:00+25sw4113532 0.0 1015469
17 may, mon
mon1723:00+19sw31058100 0.0 1015224
02:00+17sw21166100 0.0 1015235
05:00+16sw297191 0.0 1015194
08:00+19wsw376798 0.4 1016362
11:00+24wsw51245100 0.4 10161651
14:00+27w611365 0.0 10152764
17:00+27wnw612300 0.0 10152850
20:00+23wnw49415 0.0 1015449
18 may, tue
tue1823:00+17wsw2962100 0.0 1016171
02:00+16wnw21072100 0.0 1016218
05:00+14w2280100 0.0 101719
08:00+19wnw376395 0.0 1017350
11:00+23wnw594134 0.0 10172012
14:00+24nw693313 0.0 10181966
17:00+23nnw463677 0.0 10181857
20:00+20nnw235292 0.0 101978
19 may, wed
wed1923:00+15ne22690 0.0 102037
02:00+13ene11760 0.0 102120
05:00+11ese39890 0.0 1023263
08:00+14ese35675 0.0 1024431
11:00+20se23506 0.0 10231044
14:00+23se233785 0.0 10221551
17:00+24sse2333100 0.0 10211773
20:00+20ssw2253100 0.0 102120